Location: Cheching
(60.0667°N, 164.2167°W)
Time: 21:48:10
(UTC+00:00)

LilacSat-2 - Pass Details

Date: 20 January 2021
Orbit: 512 x 534 km, 97.5° (Epoch: 07 March)

Event Time Altitude Azimuth Distance (km) Brightness Sun altitude
Rises 04:42:00 0° 200° (SSW) 2,633 ? -14.2°
Reaches altitude 10° 04:44:26 10° 216° (SW) 1,754 ? -14.5°
Maximum altitude 04:47:27 22° 269° (W) 1,176 ? -14.8°
Drops below altitude 10° 04:50:29 10° 322° (NW) 1,776 ? -15.2°
Sets 04:52:59 0° 338° (NNW) 2,675 ? -15.5°
